{"data":{"norad_id":8820,"epoch":"2026-05-24T12:06:14.048064Z","epoch_age_seconds":111073,"freshness":"FRESH","line1":"1 08820U 76039A   26144.50432926  .00000010  00000+0  00000+0 0  9990","line2":"2 08820 109.8031 171.2328 0044677 307.3427 224.5567  6.38664701911621","mean_motion":6.38664701,"eccentricity":0.0044677,"inclination_deg":109.8031,"raan_deg":171.2328,"arg_perigee_deg":307.3427,"mean_anomaly_deg":224.5567,"bstar":0,"rev_number":91162,"period_min":225.47042254649,"perigee_km":5838.2257758382,"apogee_km":5947.8737379859,"semimajor_km":12271.186756912,"source":"CELESTRAK","updated_at":"2026-05-25T13:38:24.769764Z"}}